TimeEST,TemperatureF,Dew PointF,Humidity,Sea Level PressureIn,VisibilityMPH,Wind Direction,Wind SpeedMPH,Gust SpeedMPH,PrecipitationIn,Events,Conditions,WindDirDegrees,DateUTC
12:05 AM,26.6,24.8,93,29.83,0.8,North,16.1,25.3,0.00,Snow,Light Snow,360,2013-03-06 05:05:00
12:23 AM,26.6,23.0,86,29.83,0.8,North,17.3,-,0.01,Snow,Light Snow,10,2013-03-06 05:23:00
12:44 AM,26.6,24.8,93,29.84,1.0,North,16.1,-,0.01,Snow,Light Snow,10,2013-03-06 05:44:00
12:53 AM,27.0,23.0,85,29.88,1.0,North,15.0,-,0.01,Snow,Light Snow,10,2013-03-06 05:53:00
1:19 AM,26.6,23.0,86,29.86,1.5,North,15.0,-,0.00,Snow,Light Snow,10,2013-03-06 06:19:00
1:36 AM,26.6,23.0,86,29.86,2.5,North,13.8,-,0.00,Snow,Light Snow,360,2013-03-06 06:36:00
1:44 AM,26.6,23.0,86,29.87,4.0,North,16.1,-,0.00,Snow,Light Snow,360,2013-03-06 06:44:00
1:53 AM,27.0,21.9,81,29.90,5.0,North,18.4,24.2,0.00,Snow,Light Snow,10,2013-03-06 06:53:00
2:53 AM,28.0,21.9,78,29.92,10.0,North,13.8,-,0.00,,Overcast,360,2013-03-06 07:53:00
3:53 AM,28.0,21.9,78,29.93,10.0,North,12.7,-,N/A,,Overcast,350,2013-03-06 08:53:00
4:53 AM,28.0,23.0,81,29.96,10.0,NNW,11.5,-,N/A,,Overcast,340,2013-03-06 09:53:00
5:39 AM,28.4,23.0,80,29.96,10.0,NNW,12.7,-,N/A,,Overcast,340,2013-03-06 10:39:00
5:53 AM,28.9,23.0,78,30.00,10.0,NNW,12.7,-,N/A,,Overcast,340,2013-03-06 10:53:00
6:53 AM,28.9,24.1,82,30.04,10.0,NNW,12.7,-,N/A,,Overcast,340,2013-03-06 11:53:00
7:53 AM,30.0,24.1,79,30.08,10.0,NNW,12.7,-,N/A,,Overcast,340,2013-03-06 12:53:00
8:53 AM,30.0,25.0,82,30.11,10.0,NNW,12.7,-,N/A,,Overcast,340,2013-03-06 13:53:00
9:53 AM,30.9,25.0,79,30.12,10.0,NNW,11.5,-,N/A,,Overcast,340,2013-03-06 14:53:00
10:38 AM,32.0,24.8,75,30.11,10.0,North,9.2,-,N/A,,Overcast,360,2013-03-06 15:38:00
10:53 AM,32.0,24.1,73,30.14,10.0,North,10.4,-,N/A,,Overcast,360,2013-03-06 15:53:00
11:53 AM,32.0,24.1,73,30.17,10.0,North,8.1,-,N/A,,Overcast,360,2013-03-06 16:53:00
12:53 PM,33.1,25.0,72,30.18,10.0,North,8.1,-,N/A,,Overcast,360,2013-03-06 17:53:00
1:53 PM,34.0,25.0,70,30.17,10.0,NNW,6.9,-,N/A,,Overcast,330,2013-03-06 18:53:00
2:53 PM,34.0,25.0,70,30.17,10.0,NNW,5.8,-,N/A,,Overcast,340,2013-03-06 19:53:00
3:53 PM,35.1,25.0,67,30.19,10.0,North,4.6,-,N/A,,Overcast,350,2013-03-06 20:53:00
4:53 PM,35.1,25.0,67,30.19,10.0,NNW,5.8,-,N/A,,Overcast,340,2013-03-06 21:53:00
5:53 PM,34.0,27.0,75,30.21,10.0,WNW,8.1,-,N/A,,Overcast,290,2013-03-06 22:53:00
6:53 PM,34.0,26.1,73,30.23,10.0,WNW,8.1,-,N/A,,Overcast,300,2013-03-06 23:53:00
7:53 PM,34.0,26.1,73,30.25,10.0,WNW,8.1,-,N/A,,Overcast,300,2013-03-07 00:53:00
8:53 PM,34.0,26.1,73,30.25,10.0,WNW,5.8,-,N/A,,Overcast,300,2013-03-07 01:53:00
9:53 PM,33.1,26.1,75,30.26,10.0,WNW,3.5,-,N/A,,Overcast,290,2013-03-07 02:53:00
10:48 PM,33.8,26.6,75,30.22,10.0,West,8.1,-,N/A,,Overcast,280,2013-03-07 03:48:00
10:53 PM,33.1,27.0,78,30.25,10.0,West,8.1,-,N/A,,Overcast,280,2013-03-07 03:53:00
11:53 PM,32.0,28.0,85,30.26,10.0,WNW,6.9,-,N/A,,Overcast,290,2013-03-07 04:53:00